Pagina principale
METAR-TAF:

METAR-TAF

Aeroporti :

Passo Rolle, Italia

latitudine: 46-18N, longitudine: 011-47E, altezza: 2004 m

Osservazione

Il bollettino è stato emesso 1 ora e 15 minuti fa, alle 15:55 UTC
Vento 12 kt da sud-est
Temperature 6°C
Umidità 81%
Pressione 1002 hPa
Visibilità 10 km o più
Nubi sparse ad un'altezza di 400 ft, Cumulo congesto.
Nubi sparse ad un'altezza di 2000 ft

METAR: LIVR 051555Z 14012KT 9999 SCT004TCU SCT020 06/03 Q1002 RMK BKN MON GEN INC VIS MIN 5000S

Ora: 19:10 (17:10 UTC)


TAF: mancante

Osservazioni e previsioni meteorologiche di più di 4000 aeroporti (messaggi METAR e TAF).

Le stazioni disponibili sono rappresentate dai dischi gialli e rossi sulla carta.

Puntare il mouse per vedere il nome della stazione.

Clicca sopra per visualizzare le osservazioni e previsioni meteorologiche.

Per cambiare la mappa : fare clic sui pulsanti verdi con una croce nera per ingrandire, il pulsante verde con un trattino per diminuire, o sulla freccia verde per le mappe adiacenti.


METAR-TAF: